XML Sitemap

This is a XML Sitemap which is supposed to be processed by search engines which follow the XML Sitemap standard like Ask.com, Bing, Google and Yahoo.
It was generated using the WordPress content management system and the Google Sitemap Generator Plugin by Arne Brachhold.
You can find more information about XML sitemaps on sitemaps.org and Google's list of sitemap programs.

URLPriorityChange frequencyLast modified (GMT)
https://100frames.com/35-october-calendar-printable/50%Daily2019-03-07 10:08
https://100frames.com/32-calendar-2008-uk-printable/50%Daily2019-03-07 10:06
https://100frames.com/34-lps-calendar-2019/50%Daily2019-03-07 10:06
https://100frames.com/35-free-monthly-printable-calendar-2019-word-document/50%Daily2019-03-07 10:04
https://100frames.com/30-calendar-for-august-september-2019/50%Daily2019-03-07 10:01
https://100frames.com/34-printable-wedding-planner-calendar/50%Daily2019-03-07 10:00
https://100frames.com/34-dec-2019-calendar-with-holidays/50%Daily2019-03-07 09:59
https://100frames.com/35-march-calendar-printable-word/50%Daily2019-03-07 09:57
https://100frames.com/25-printable-month-calendar-june-2019/50%Daily2019-03-07 09:55
https://100frames.com/33-free-calendar-printable-may-june-july2019/50%Daily2019-03-07 09:55
https://100frames.com/33-calendar-printable-free-weekly/50%Daily2019-03-07 09:53
https://100frames.com/31-fall-foliage-calendar-2019/50%Daily2019-03-07 09:50
https://100frames.com/35-free-printable-reusable-calendars/50%Daily2019-03-07 09:50
https://100frames.com/18-november-to-december-2019-calendar/50%Daily2019-03-07 09:49
https://100frames.com/33-2021-calendar-printable/50%Daily2019-03-07 09:47
https://100frames.com/24-fun-student-printable-calendars-owls/50%Daily2019-03-07 09:46
https://100frames.com/35-december-2019-print-calendar/50%Daily2019-03-07 09:45
https://100frames.com/27-telugu-calendar-2019-india/50%Daily2019-03-07 09:44
https://100frames.com/34-4-month-calendar-2019-2020/50%Daily2019-03-07 09:40
https://100frames.com/30-entire-2019-printable-calendar-on-one-page/50%Daily2019-03-07 09:39
https://100frames.com/32-www-free-printable-calendars-com/50%Daily2019-03-07 09:37
https://100frames.com/35-printable-mini-calendar-2019/50%Daily2019-03-07 09:35
https://100frames.com/31-legal-paper-december-2019-calendar-printable/50%Daily2019-03-07 09:35
https://100frames.com/34-calendar-numbers-year-free-printable/50%Daily2019-03-07 09:32
https://100frames.com/31-macomb-community-college-calendar/50%Daily2019-03-07 09:30
https://100frames.com/30-monthly-planning-calendar-printable/50%Daily2019-03-07 09:30
https://100frames.com/35-century-high-school-calendar/50%Daily2019-03-07 09:28
https://100frames.com/31-two-month-printable-calendar-dec-2019-to-january-2019/50%Daily2019-03-07 09:26
https://100frames.com/33-december-holiday-calendar/50%Daily2019-03-07 09:25
https://100frames.com/25-minimal-free-printable-calendars/50%Daily2019-03-07 09:23
https://100frames.com/33-calendar-for-december-2019-with-holidays/50%Daily2019-03-07 09:21
https://100frames.com/30-frint-printable-calendars/50%Daily2019-03-07 09:20
https://100frames.com/33-free-printable-custom-calendar-templates/50%Daily2019-03-07 09:18
https://100frames.com/32-pdf-printable-calendar/50%Daily2019-03-07 09:16
https://100frames.com/33-jewish-calendar/50%Daily2019-03-07 09:15
https://100frames.com/35-www-free-printable-calendar-com-october-2019/50%Daily2019-03-07 09:14
https://100frames.com/31-august-2019-printable-calendar-waterproof/50%Daily2019-03-07 09:11
https://100frames.com/31-free-printable-calendar-two-pages-per-month-vertical/50%Daily2019-03-07 09:10
https://100frames.com/30-buncombe-county-court-calendar/50%Daily2019-03-07 09:09
https://100frames.com/31-printable-christmas-calendar-template/50%Daily2019-03-07 09:05
https://100frames.com/30-week-printable-appointment-calendar/50%Daily2019-03-07 09:03
https://100frames.com/33-free-printable-custody-calendar/50%Daily2019-03-07 09:01
https://100frames.com/35-printable-4x6-calendar-2019/50%Daily2019-03-07 09:00
https://100frames.com/32-how-to-make-a-printable-birthday-calendar/50%Daily2019-03-07 08:59
https://100frames.com/31-small-printable-calendar-september-2019/50%Daily2019-03-07 08:56
https://100frames.com/32-printable-5777-5778-calendar/50%Daily2019-03-07 08:56
https://100frames.com/35-8x10-february-2019-printable-calendar/50%Daily2019-03-07 08:54
https://100frames.com/31-year-at-a-glance-printable-calendar-2019/50%Daily2019-03-07 08:52
https://100frames.com/34-12-month-printable-calendar-2019/50%Daily2019-03-07 08:50
https://100frames.com/31-september-schedule-2019-printable-calendar/50%Daily2019-03-07 08:50
https://100frames.com/33-2019-small-free-printable-calendars/50%Daily2019-03-07 08:48
https://100frames.com/33-calendar-2019-june-july-2/50%Daily2019-03-07 08:46
https://100frames.com/35-large-july-2019-calendar-printable/50%Daily2019-03-07 08:45
https://100frames.com/33-printable-monthly-calendar-pdf/50%Daily2019-03-07 08:43
https://100frames.com/35-jewish-holidays-in-may/50%Daily2019-03-07 08:41
https://100frames.com/34-september-21st-2019-holiday/50%Daily2019-03-07 08:41
https://100frames.com/31-monthly-calendar-vertical-printable/50%Daily2019-03-07 08:39
https://100frames.com/24-calendar-for-phases-of-the-moon-printable/50%Daily2019-03-07 08:37
https://100frames.com/31-calendar-free-printables-2019/50%Daily2019-03-07 08:35
https://100frames.com/34-printable-calendar-software/50%Daily2019-03-07 08:35
https://100frames.com/33-printable-july-august-september-calendar/50%Daily2019-03-07 08:32
https://100frames.com/35-origins-advent-calendar/50%Daily2019-03-07 08:31
https://100frames.com/35-blank-march-2019-calendar-to-print/50%Daily2019-03-07 08:30
https://100frames.com/22-google-calendar-printable/50%Daily2019-03-07 08:27
https://100frames.com/32-free-printable-birthday-countdown-calendar/50%Daily2019-03-07 08:26
https://100frames.com/30-printable-exercise-calendar-template/50%Daily2019-03-07 08:25
https://100frames.com/33-printable-car-calendar-2019/50%Daily2019-03-07 08:24
https://100frames.com/30-free-printable-calendar-artistic/50%Daily2019-03-07 08:21
https://100frames.com/31-printable-april-2019-calendar-template/50%Daily2019-03-07 08:20
https://100frames.com/30-3-month-calendar-printable/50%Daily2019-03-07 08:19
https://100frames.com/35-google-calendar-for-windows-10/50%Daily2019-03-07 08:17
https://100frames.com/30-free-printable-calendars-yearly-2019/50%Daily2019-03-07 08:15
https://100frames.com/33-lab-school-calendar/50%Daily2019-03-07 08:15
https://100frames.com/31-may-printable-calendar-waterproof/50%Daily2019-03-07 08:13
https://100frames.com/33-june-blank-calendar-printable/50%Daily2019-03-07 08:10
https://100frames.com/30-printable-school-calendar-2019-and-2019/50%Daily2019-03-07 08:09
https://100frames.com/31-august-blank-printable-calendar-2019/50%Daily2019-03-07 08:06
https://100frames.com/26-monthly-blank-calendar-2019/50%Daily2019-03-07 08:05
https://100frames.com/33-october-november-calendar-printable/50%Daily2019-03-07 08:04
https://100frames.com/33-january-2019-schedule-printable-calendar/50%Daily2019-03-07 08:01
https://100frames.com/34-free-printable-school-house-calendar-2019/50%Daily2019-03-07 08:00
https://100frames.com/31-bill-calendar-app/50%Daily2019-03-07 07:59
https://100frames.com/30-free-printable-weekly-appointment-calendar-templates/50%Daily2019-03-07 07:57
https://100frames.com/25-monthly-planner-template-2019/50%Daily2019-03-07 07:55
https://100frames.com/35-december-2019-events/50%Daily2019-03-07 07:56
https://100frames.com/35-leon-county-schools-calendar/50%Daily2019-03-07 07:53
https://100frames.com/32-november-2019-template/50%Daily2019-03-07 07:51
https://100frames.com/34-what-is-lunar-calendar/50%Daily2019-03-07 07:50
https://100frames.com/31-printable-schoolyear-2019-2019-calendar/50%Daily2019-03-07 07:49
https://100frames.com/33-printable-calendar-blank-2019/50%Daily2019-03-07 07:46
https://100frames.com/23-january-2019-calendar-cute-free/50%Daily2019-03-07 07:45
https://100frames.com/33-monthly-2019-calendar-printable/50%Daily2019-03-07 07:44
https://100frames.com/22-wallet-size-printable-calendar-2019/50%Daily2019-03-07 07:42
https://100frames.com/34-february-2019-calendar-printable-vertex/50%Daily2019-03-07 07:40
https://100frames.com/30-free-printable-christmas-calendar-2019/50%Daily2019-03-07 07:41
https://100frames.com/30-levy-county-school-calendar/50%Daily2019-03-07 07:38
https://100frames.com/34-printable-menstrual-cycle-calendar/50%Daily2019-03-07 07:35
https://100frames.com/31-cute-printable-calendar-2019-vertical/50%Daily2019-03-07 07:35
https://100frames.com/33-free-printable-calendar-worksheets-for-second-grade/50%Daily2019-03-07 07:32
https://100frames.com/26-mar-2019-printable-calendars/50%Daily2019-03-07 07:31
https://100frames.com/35-printable-monday-through-friday-calendar/50%Daily2019-03-07 07:31
https://100frames.com/32-patriotic-printable-calendar/50%Daily2019-03-07 07:30
https://100frames.com/33-free-calendar-printable-for-bill-pay/50%Daily2019-03-07 07:30
https://100frames.com/26-2019-2020-calendar-with-islamic-dates/50%Daily2019-03-07 07:28
https://100frames.com/31-november-2019-calendar-printable-and-editable/50%Daily2019-03-07 07:25
https://100frames.com/30-workout-calendar-template-printable/50%Daily2019-03-07 07:25
https://100frames.com/34-february-2019-printable-calendar-editable/50%Daily2019-03-07 07:23
https://100frames.com/31-plano-events-calendar/50%Daily2019-03-07 07:21
https://100frames.com/30-printable-2019-calendar-with-holidays-usa/50%Daily2019-03-07 07:20
https://100frames.com/24-2019-calendar-printable-microsoft-word/50%Daily2019-03-07 07:19
https://100frames.com/30-december-2019-and-january-2019-calendar-printable/50%Daily2019-03-07 07:17
https://100frames.com/35-jewish-calendar-printable/50%Daily2019-03-07 07:15
https://100frames.com/32-unt-event-calendar/50%Daily2019-03-07 07:16
https://100frames.com/23-calendar-2019-february-and-march/50%Daily2019-03-07 07:13
https://100frames.com/30-free-gift-certificate-maker/50%Daily2019-03-07 07:11
https://100frames.com/33-what-time-is-it-in-dubai/50%Daily2019-03-07 07:10
https://100frames.com/32-august-blank-calendar-pdf/50%Daily2019-03-07 07:10
https://100frames.com/32-printable-bill-pay-calendar-ledger/50%Daily2019-03-07 07:08
https://100frames.com/35-free-printable-montly-calendar/50%Daily2019-03-07 07:05
https://100frames.com/34-printable-august-17-calendar/50%Daily2019-03-07 07:05
https://100frames.com/32-childrens-printable-calendar/50%Daily2019-03-07 07:03
https://100frames.com/32-january-2019-calendar-printable-imom/50%Daily2019-03-07 07:00
https://100frames.com/26-2019-calendar-printables/50%Daily2019-03-07 07:00
https://100frames.com/30-2019-dec-calendar-printable/50%Daily2019-03-07 06:58
https://100frames.com/33-hanging-wall-calendar/50%Daily2019-03-07 06:56
https://100frames.com/32-oct-nov-calendar-2019/50%Daily2019-03-07 06:55
https://100frames.com/26-printable-perpetual-calendar-chart/50%Daily2019-03-07 06:54
https://100frames.com/20-printable-calendar-2019-canada/50%Daily2019-03-07 06:52
https://100frames.com/33-printable-marketing-calendar-pdf/50%Daily2019-03-07 06:50
https://100frames.com/32-the-christmas-calendar-online-subtitrat/50%Daily2019-03-07 06:50
https://100frames.com/17-month-of-november-2019/50%Daily2019-03-07 06:48
https://100frames.com/34-printable-workout-calendar-2019/50%Daily2019-03-07 06:46
https://100frames.com/33-printable-desk-calendars/50%Daily2019-03-07 06:45
https://100frames.com/33-printable-calendar-3-months-per-page/50%Daily2019-03-07 06:44
https://100frames.com/33-205-calendar-printable/50%Daily2019-03-07 06:41
https://100frames.com/30-free-printable-disney-countdown-calendar/50%Daily2019-03-07 06:40
https://100frames.com/35-lenten-calendar-2019-printable/50%Daily2019-03-07 06:39
https://100frames.com/31-january-2019-calendar-monthly-printable/50%Daily2019-03-07 06:36
https://100frames.com/31-day-of-the-week-calendar-printable/50%Daily2019-03-07 06:35
https://100frames.com/34-mayan-calendar-facts/50%Daily2019-03-07 06:33
https://100frames.com/32-school-calendar-template/50%Daily2019-03-07 06:31
https://100frames.com/33-printable-blank-calendar-for-june-2019/50%Daily2019-03-07 06:30
https://100frames.com/31-diet-calendar-printable/50%Daily2019-03-07 06:29
https://100frames.com/35-ritz-ybor-calendar/50%Daily2019-03-07 06:27
https://100frames.com/31-calendar-in-november-2019/50%Daily2019-03-07 06:25
https://100frames.com/31-printable-calendar-september-2019-starting-monday/50%Daily2019-03-07 06:25
https://100frames.com/31-august-2019-printable-calendar-11x17/50%Daily2019-03-07 06:23
https://100frames.com/30-printable-free-calendar-2019-australia/50%Daily2019-03-07 06:21
https://100frames.com/34-calendar-2019-july-to-december/50%Daily2019-03-07 06:20
https://100frames.com/33-printable-november-2019-calendar-page/50%Daily2019-03-07 06:19
https://100frames.com/32-printable-calendar-january-february-2019/50%Daily2019-03-07 06:17
https://100frames.com/22-june-2019-printable-a-calendar/50%Daily2019-03-07 06:15
https://100frames.com/35-calendar-2019-18-printable/50%Daily2019-03-07 06:16
https://100frames.com/23-june-2019-printable-calendar-canada/50%Daily2019-03-07 06:13
https://100frames.com/32-2019-calendar-printable-large-print/50%Daily2019-03-07 06:11
https://100frames.com/32-printable-august-calendar-2019/50%Daily2019-03-07 06:10
https://100frames.com/31-july-calendar-2019-printable-color/50%Daily2019-03-07 06:09
https://100frames.com/30-18-month-calendars-printable/50%Daily2019-03-07 06:07
https://100frames.com/34-february-2019-printable-calendar-tumblr/50%Daily2019-03-07 06:06
https://100frames.com/31-veterans-day-2019-calendar/50%Daily2019-03-07 06:05
https://100frames.com/30-download-printable-calendar-august-2019/50%Daily2019-03-07 06:03